Regional Weather Roundup
Issued by NWS

Home | Current Version | Previous Version | Text Only | Print | Product List | Glossary On
Versions: 1 2 3 4 5 6 7 8 9 10 11 12 13 14 15 16 17 18 19 20 21 22 23 24 25 26 27 28 29 30 31 32 33 34 35 36 37 38 39 40 41 42 43 44 45 46 47 48 49 50
000
ASUS42 KFFC 230310
RWRGA
WEATHER ROUNDUP FOR GEORGIA
NATIONAL WEATHER SERVICE PEACHTREE CITY GA
1100 PM EDT MON MAY 22 2017

NOTE: "FAIR" INDICATES FEW OR NO CLOUDS BELOW 12,000 FEET WITH NO
SIGNIFICANT WEATHER AND/OR OBSTRUCTIONS TO VISIBILITY.

* = USE WITH CAUTION. THE STATIONS MARKED WITH AN ASTERISK MAY NOT
REPORT WEATHER SUCH AS PRECIPITATION, FOG, OR THUNDER AND ARE NOT
QUALITY CONTROLLED BY NWS.

THE REMARK "TC" DENOTES TEMPERATURE READING IN DEGREES CELSIUS.

GAZ001>058-230400-
NORTH GEORGIA

CITY           SKY/WX    TMP DP  RH WIND       PRES   REMARKS
ATLANTA        LGT RAIN  70  68  93 NW6       29.97R
ATHENS         CLOUDY    68  68 100 CALM      29.96R
CHAMBLEE       LGT RAIN  69  67  93 W5        29.97R FOG
PEACHTREE CITY MOCLDY    69  69 100 CALM      29.96S
ROME           LGT RAIN  69  68  96 S5        29.95R
WEST ATLANTA   LGT RAIN  69  69 100 CALM      29.97R FOG
GAINESVILLE    CLOUDY    67  66  97 S5        29.98S
CARTERSVILLE   LGT RAIN  67  67 100 CALM      29.98R


CITY           SKY/WX    TMP DP  RH WIND       PRES   REMARKS
DALTON*        LGT RAIN  68  68 100 CALM      29.97R
MARIETTA       LGT RAIN  69  67  95 SW3       29.97R FOG
KENNESAW*      CLOUDY    68  68 100 CALM      30.01R FOG
CANTON*        CLOUDY    68  64  88 CALM      29.99R FOG
$$

GAZ059>098-102>109-230400-
CENTRAL GEORGIA

CITY           SKY/WX    TMP DP  RH WIND       PRES   REMARKS
AUGUSTA-BUSH   CLOUDY    72  69  90 CALM      29.94F
AUGUSTA-DANIEL CLOUDY    71  67  87 SE5       29.95F
COLUMBUS       CLOUDY    74  68  81 SE7       29.94R
MACON          CLOUDY    71  69  93 CALM      29.95R
ROBINS AFB     CLOUDY    72  70  93 S3        29.95R


CITY           SKY/WX    TMP DP  RH WIND       PRES   REMARKS
LAGRANGE*      DRIZZLE   72  72 100 CALM      29.96S
SYLVANIA*      RAIN      71  71 100 SE3       29.97R
MILLEDGEVILLE* CLOUDY    72  72 100 CALM      29.95R
$$

GAZ099>101-110>166-230400-
SOUTH GEORGIA

CITY           SKY/WX    TMP DP  RH WIND       PRES   REMARKS
SAVANNAH       TSTM      73  72  96 E5        29.96S
VALDOSTA       CLOUDY    75  70  84 S5        29.96R
ALMA           CLOUDY    78  69  73 CALM      29.95R
ST SIMONS      CLOUDY    76  71  85 SW7       29.96S
FT STEWART     CLOUDY    73  71  92 SE5       29.93F
ALBANY         CLOUDY    77  71  82 S6        29.95S
HUNTER AFB     CLOUDY    75  75 100 CALM      29.94R
MOODY AFB      CLOUDY    75  70  85 S7        29.94R
BRUNSWICK      CLOUDY    73  73 100 S7        29.97S


CITY           SKY/WX    TMP DP  RH WIND       PRES   REMARKS
BAINBRIDGE*    CLOUDY    73  72  94 S5        29.94S
MOULTRIE*      CLOUDY    75  72  88 S3        29.96R
VIDALIA*       HVY RAIN  72  70  94 SE5       29.94R
WAYCROSS*      CLOUDY    78  77  97 S5        29.96S
DOUGLAS*       CLOUDY    75  68  78 SW5       29.97R
$$




USA.gov is the U.S. government's official web portal to all federal, state and local government web resources and services.